Location: Allaines
(49.9632°N, 2.9458°E)
Time: 12:00:02
(UTC+00:00)

Meteor 1-11 - Pass Details

Date: 09 April 2020
Orbit: 841 x 886 km, 81.2° (Epoch: 27 May)

Event Time Altitude Azimuth Distance (km) Brightness Sun altitude
Rises 19:33:38 0° 346° (NNW) 3,487 8.0 -10.0°
Reaches altitude 10° 19:36:06 10° 346° (NNW) 2,539 7.3 -10.3°
Maximum altitude 19:41:52 79° 261° (W) 890 4.4 -11.2°
Drops below altitude 10° 19:47:31 10° 175° (S) 2,489 6.3 -12.0°
Sets 19:49:55 0° 174° (S) 3,415 7.0 -12.3°
